Weather History for KELY - October, 2010

Change the Weather History Date:

Wednesday, October 13, 2010

  Actual Average Record
Temperature  
Mean Temperature 48 °F 46 °F  
Max Temperature 71 °F 64 °F 80 °F (1950)
Min Temperature 24 °F 29 °F 7 °F (2008)
Degree Days  
Heating Degree Days 17 19  
Month to date heating degree days 165 217  
Since 1 July heating degree days 410 533  
Cooling Degree Days 0 0  
Month to date cooling degree days 0 0  
Year to date cooling degree days 271 218  
Moisture  
Dew Point 16 °F    
Average Humidity 45    
Maximum Humidity 81    
Minimum Humidity 8    
Precipitation  
Precipitation 0.00 in 0.03 in 0.45 in (2013)
Month to date precipitation 0.58 0.42  
Year to date precipitation 5.39 7.89  
Snow  
Snow 0.00 in 0.10 in 4.00 in (1899)
Month to date snowfall 0.0 1.0  
Since 1 July snowfall 0.0 1.4  
Since 1 September snowfall 0.0 1.4  
Snow Depth 0.00 in    
Sea Level Pressure  
Sea Level Pressure 30.36 in    
Wind  
Wind Speed 7 mph (SSE)    
Max Wind Speed 14 mph    
Max Gust Speed 15 mph    
Visibility 10 miles    
Events      
T = Trace of Precipitation, MM = Missing Value Source: NWS Daily Summary

Daily Weather History Graph

Daily Weather History Graph

Search for Another Location

Airport or City:

Trip Planner

Search our weather history database for the weather conditions in past years. The results will help you decide how hot, cold, wet, or windy it might be!

Date:

Astronomy

Oct. 13, 2010 Rise Set
Actual Time 6:47 AM PDT 6:03 PM PDT
Civil Twilight 6:20 AM PDT 6:30 PM PDT
Nautical Twilight 5:49 AM PDT 7:01 PM PDT
Astronomical Twilight 5:18 AM PDT 7:32 PM PDT
Moon 1:08 PM PDT (10/13) 10:48 PM PDT (10/13)
Length of Visible Light 12h 10m
Length of Day
11h 16m
Waxing Crescent, 39% of the Moon is Illuminated
Oct 13
Waxing Crescent
Oct 14
First Quarter
Oct 22
Full
Oct 30
Last Quarter
Nov 5
New

Hourly Weather History & Observations

Time (PDT) Temp. Windchill Dew Point Humidity Pressure Visibility Wind Dir Wind Speed Gust Speed Precip Events Conditions
12:53 AM 32.0 °F 22.5 °F 23.0 °F 69% 30.37 in 10.0 mi South 12.7 mph - N/A   Clear
1:53 AM 30.9 °F 23.5 °F 21.9 °F 69% 30.37 in 10.0 mi South 8.1 mph - N/A   Clear
2:53 AM 30.9 °F 24.3 °F 21.0 °F 67% 30.36 in 10.0 mi South 6.9 mph - N/A   Clear
3:53 AM 27.0 °F 18.7 °F 19.9 °F 75% 30.37 in 10.0 mi SSE 8.1 mph - N/A   Clear
4:53 AM 27.0 °F 17.3 °F 19.9 °F 75% 30.38 in 10.0 mi South 10.4 mph - N/A   Clear
5:53 AM 25.0 °F 15.5 °F 19.0 °F 78% 30.42 in 10.0 mi South 9.2 mph - N/A   Clear
6:53 AM 24.1 °F 15.2 °F 18.0 °F 77% 30.46 in 10.0 mi South 8.1 mph - N/A   Clear
7:53 AM 30.9 °F 23.5 °F 21.0 °F 67% 30.45 in 10.0 mi South 8.1 mph - N/A   Clear
8:53 AM 42.1 °F 39.2 °F 23.0 °F 47% 30.45 in 10.0 mi South 4.6 mph - N/A   Clear
9:53 AM 51.1 °F - 19.9 °F 29% 30.43 in 10.0 mi Variable 3.5 mph - N/A   Clear
10:53 AM 55.9 °F - 16.0 °F 21% 30.40 in 10.0 mi Variable 4.6 mph - N/A   Clear
11:53 AM 61.0 °F - 14.0 °F 16% 30.38 in 10.0 mi Variable 4.6 mph - N/A   Clear
12:53 PM 64.9 °F - 12.9 °F 13% 30.33 in 10.0 mi North 5.8 mph - N/A   Clear
1:53 PM 66.9 °F - 8.1 °F 10% 30.30 in 10.0 mi North 8.1 mph - N/A   Clear
2:53 PM 70.0 °F - 5.0 °F 8% 30.26 in 10.0 mi North 3.5 mph - N/A   Clear
3:53 PM 70.0 °F - 5.0 °F 8% 30.27 in 10.0 mi Variable 3.5 mph - N/A   Clear
4:53 PM 69.1 °F - 7.0 °F 9% 30.27 in 10.0 mi NNE 4.6 mph - N/A   Clear
5:53 PM 61.0 °F - 8.1 °F 12% 30.31 in 10.0 mi North 6.9 mph - N/A   Clear
6:53 PM 48.9 °F - 16.0 °F 27% 30.38 in 10.0 mi SSE 8.1 mph - N/A   Clear
7:53 PM 46.0 °F 41.0 °F 17.1 °F 31% 30.38 in 10.0 mi South 10.4 mph - N/A   Clear
8:53 PM 45.0 °F 39.3 °F 16.0 °F 31% 30.35 in 10.0 mi SSE 11.5 mph - N/A   Clear
9:53 PM 41.0 °F 34.3 °F 15.1 °F 35% 30.35 in 10.0 mi South 11.5 mph - N/A   Clear
10:53 PM 36.0 °F 30.3 °F 16.0 °F 44% 30.35 in 10.0 mi SSE 6.9 mph - N/A   Clear
11:53 PM 35.1 °F 27.4 °F 16.0 °F 46% 30.33 in 10.0 mi SSE 10.4 mph - N/A   Clear